Overview Statistics Trail Chart Weather Telemetry Raw packets
 

This is the latest recevied weather packets stored in our database for station/object 4S6DRJ-13. If no packets are shown the sender has not sent any weather packets the latest 10 day(s).

<< 254 255 256 257 258 259 260 >>
Time Temp. Humidity Pressure Rain* Wind** Luminosity Snow
1788094054 28.33° C 79% 1008.6 hPa 0 mm 0.89 m/s, 200° 3 W/m² -
1788093993 28.33° C 79% 1008.4 hPa 0 mm 1.79 m/s, 245° 4 W/m² -
1788093932 28.33° C 79% 1008.6 hPa 0 mm 1.34 m/s, 255° 4 W/m² -
1788093871 28.33° C 79% 1008.5 hPa 0 mm 0.89 m/s, 228° 4 W/m² -
1788093810 28.33° C 79% 1008.5 hPa 0 mm 0.89 m/s, 232° 5 W/m² -
1788093750 28.89° C 79% 1008.4 hPa 0 mm 1.79 m/s, 268° 5 W/m² -
1788093688 28.89° C 79% 1008.5 hPa 0 mm 2.24 m/s, 288° 6 W/m² -
1788093627 28.89° C 79% 1008.4 hPa 0 mm 1.34 m/s, 221° 6 W/m² -
1788093566 28.89° C 79% 1008.6 hPa 0 mm 0.89 m/s, 272° 6 W/m² -
1788093505 28.89° C 78% 1008.6 hPa 0 mm 0.89 m/s, 307° 7 W/m² -
1788093445 28.89° C 78% 1008.5 hPa 0 mm 0.45 m/s, 186° 7 W/m² -
1788093383 28.89° C 78% 1008.5 hPa 0 mm 0.45 m/s, 256° 8 W/m² -
1788093322 28.89° C 78% 1008.5 hPa 0 mm 1.34 m/s, 252° 8 W/m² -
1788093261 28.89° C 78% 1008.6 hPa 0 mm 0.89 m/s, 252° 8 W/m² -
1788093200 28.89° C 78% 1008.4 hPa 0 mm 0.45 m/s, 174° 9 W/m² -
1788093139 28.89° C 78% 1008.4 hPa 0 mm 0.45 m/s, 251° 9 W/m² -
1788093078 28.89° C 78% 1008.4 hPa 0 mm 1.34 m/s, 291° 10 W/m² -
1788093017 28.89° C 78% 1008.6 hPa 0 mm 0.45 m/s, 200° 10 W/m² -
1788092956 28.89° C 78% 1008.4 hPa 0 mm 0 m/s 10 W/m² -
1788092895 28.89° C 78% 1008.4 hPa 0 mm 0.89 m/s, 285° 10 W/m² -
1788092834 28.89° C 78% 1008.4 hPa 0 mm 1.34 m/s, 21° 11 W/m² -
1788092773 28.89° C 78% 1008.4 hPa 0 mm 1.34 m/s, 253° 12 W/m² -
1788092713 28.89° C 77% 1008.4 hPa 0 mm 1.79 m/s, 252° 12 W/m² -
1788092651 28.89° C 77% 1008.6 hPa 0 mm 1.34 m/s, 323° 13 W/m² -
1788092590 28.89° C 77% 1008.4 hPa 0 mm 1.34 m/s, 228° 13 W/m² -

* Rain latest hour (hover to see other rain measurements)
** Current wind speed in m/s (hover to see current wind gust speed)